User: anonymous   Login
Location: Fontevrault
(47.1823°N, 0.0493°E)
Time: 23:40:05
(UTC+00:00)
Language:

Sep Motor Cover - Orbit

View from above orbital plane
View from above orbital plane
View from above satellite
View from above satellite

Ground track
Ground track

The orbit data is extracted from the following two-line orbital elements,

1 18411U 87041D   22028.29656880  .00000016  00000-0  53351-4 0  9991
2 18411  71.0341 340.6165 0190020 340.0139 170.3709 13.75803529742003
Epoch (UTC): 28 January 2022 07:07:03
Eccentricity: 0.0190020
inclination: 71.0341°
perigee height: 839 km
apogee height: 1118 km
right ascension of ascending node: 340.6165°
argument of perigee: 340.0139°
revolutions per day: 13.75803529
mean anomaly at epoch: 170.3709°
orbit number at epoch: 74200

The dashed part of the orbit path shows where the satellite is in the earth's shadow,  

DLR